Home   Weather   42°08'N, 71°03'W   Past weeks
Flag for USA

Past Weather in 42°08'N, 71°03'W, USA — Yesterday and Last 2 Weeks

Now
40 °F

Light rain. Cloudy.


Feels Like: 29 °F
Forecast: 44 / 39 °F
Wind: 28 mph from Northeast

Location: Logan International Airport

Current Time: Mar 22, 2019 at 8:31:03 am

Latest Report: Mar 22, 2019 at 7:54 am


Visibility: 10 mi

Pressure: 29.33 "Hg

Humidity: 86%

Dew Point: 36 °F

Location of 42°08'N, 71°03'WLocation

Past Weather in 42°08'N, 71°03'W — Graph

°F

42°08'N, 71°03'W Temperature Yesterday

Maximum temperature yesterday: 51 °F (at 12:54 pm)
Minimum temperature yesterday: 36 °F (at 3:54 am)
Average temperature yesterday: 42 °F

High & Low Weather Summary for the Past Weeks

 TemperatureHumidityPressure
High64 °F (Mar 15, 3:54 pm)96% (Mar 10, 6:54 pm)30.44 "Hg (Mar 10, 6:54 pm)
Low15 °F (Mar 7, 5:54 am)19% (Mar 18, 4:54 pm)29.37 "Hg (Mar 22, 6:54 am)
Average39 °F55%30.11 "Hg
* Reported Mar 7 5:54 am — Mar 22 6:54 am, 42°08'N, 71°03'W. Weather by CustomWeather, © 2019

Note: Actual official high and low records may vary slightly from our data, if they occured in-between our weather recording intervals... More about our weather records

Advertising

42°08'N, 71°03'W Weather History for the Previous 24 Hours

Scroll right to see more
 ConditionsComfort  
Time TempWeatherWind HumidityBarometerVisibility
6:54 am
Fri, Mar 22
40 °FRain. Fog.35 mph89%29.37 "Hg3 mi
5:54 am41 °FLight rain. Fog.26 mph89%29.45 "Hg3 mi
5:36 am41 °FRain. Fog.24 mph89%29.48 "Hg3 mi
4:54 am41 °FHeavy rain. Fog.21 mph89%29.57 "Hg2 mi
3:54 am41 °FLight rain. Low clouds.17 mph89%29.61 "Hg7 mi
2:54 am41 °FLow clouds.21 mph86%29.65 "Hg9 mi
1:54 am41 °FLight rain. Fog.20 mph86%29.73 "Hg6 mi
12:54 am41 °FLight rain. Overcast.13 mph82%29.80 "Hg9 mi
11:54 pm
Thu, Mar 21
41 °FMostly cloudy.13 mph82%29.83 "Hg10 mi
10:54 pm41 °FMostly cloudy.12 mph82%29.88 "Hg10 mi
9:54 pm41 °FMostly cloudy.10 mph80%29.93 "Hg10 mi
9:35 pm41 °FMostly cloudy.12 mph80%29.94 "Hg10 mi
8:54 pm41 °FMostly cloudy.10 mph80%29.97 "Hg10 mi
6:54 pm43 °FOvercast.18 mph74%30.02 "Hg10 mi
3:54 pm51 °FPartly sunny.12 mph33%30.08 "Hg10 mi
2:54 pm51 °FPartly sunny.13 mph38%30.10 "Hg10 mi
1:54 pm51 °FOvercast.16 mph38%30.12 "Hg10 mi
12:54 pm51 °FOvercast.21 mph36%30.15 "Hg10 mi
11:54 am48 °FMore clouds than sun.10 mph54%30.17 "Hg10 mi
10:54 am49 °FPartly sunny.9 mph44%30.21 "Hg10 mi
9:54 am43 °FScattered clouds.8 mph62%30.22 "Hg10 mi
8:54 am40 °FScattered clouds.5 mph65%30.23 "Hg10 mi
Weather by CustomWeather, © 2019

See weather overview